Year,Month,Day,Hour,Minute,Value (Times are PST for temperature in C)
2014,09,18,11,37,17.30
2014,09,18,11,38,17.30
2014,09,18,11,39,17.30
2014,09,18,11,40,17.30
2014,09,18,11,41,17.30
2014,09,18,11,42,17.30
2014,09,18,11,43,17.20
2014,09,18,11,44,17.20
2014,09,18,11,45,17.20
2014,09,18,11,46,17.10
2014,09,18,11,47,17.10
2014,09,18,11,48,17.10
2014,09,18,11,49,17.00
2014,09,18,11,50,17.00
2014,09,18,11,51,17.00
2014,09,18,11,52,17.00
2014,09,18,11,53,17.00
2014,09,18,11,54,17.00
2014,09,18,11,55,16.90
2014,09,18,11,56,16.90
2014,09,18,11,57,16.80
2014,09,18,11,58,16.80
2014,09,18,11,59,16.80
2014,09,18,12,00,16.80
2014,09,18,12,01,16.80
2014,09,18,12,02,16.70
2014,09,18,12,03,16.70
2014,09,18,12,04,16.70
2014,09,18,12,05,16.70
2014,09,18,12,06,16.70
2014,09,18,12,07,16.70
2014,09,18,12,08,16.70
2014,09,18,12,09,16.70
2014,09,18,12,10,16.70
2014,09,18,12,11,16.70
2014,09,18,12,12,16.70
2014,09,18,12,13,16.70
2014,09,18,12,14,16.70
2014,09,18,12,15,16.70
2014,09,18,12,16,16.70
2014,09,18,12,17,16.70
2014,09,18,12,18,16.70
2014,09,18,12,19,16.70
2014,09,18,12,20,16.70
2014,09,18,12,21,16.70
2014,09,18,12,22,16.70
2014,09,18,12,23,16.70
2014,09,18,12,24,16.70
2014,09,18,12,25,16.70
2014,09,18,12,26,16.80
2014,09,18,12,27,16.80
2014,09,18,12,28,16.90
2014,09,18,12,29,16.90
2014,09,18,12,30,17.00
2014,09,18,12,31,17.00
2014,09,18,12,32,17.00
2014,09,18,12,33,17.00
2014,09,18,12,34,17.10
2014,09,18,12,35,17.10
2014,09,18,12,36,17.10
2014,09,18,12,37,17.20
2014,09,18,12,38,17.20
2014,09,18,12,39,17.10
2014,09,18,12,40,17.10
2014,09,18,12,41,17.10
2014,09,18,12,42,17.20
2014,09,18,12,43,17.20
2014,09,18,12,44,17.20
2014,09,18,12,45,17.20
2014,09,18,12,46,17.20
2014,09,18,12,47,17.20
2014,09,18,12,48,17.20
2014,09,18,12,49,17.10
2014,09,18,12,50,17.10
2014,09,18,12,51,17.00
2014,09,18,12,52,16.90
2014,09,18,12,53,16.90
2014,09,18,12,54,16.90
2014,09,18,12,55,16.90
2014,09,18,12,56,16.80
2014,09,18,12,57,16.80
2014,09,18,12,58,16.80
2014,09,18,12,59,16.70
2014,09,18,13,00,16.70
2014,09,18,13,01,16.70
2014,09,18,13,02,16.70
2014,09,18,13,03,16.70
2014,09,18,13,04,16.70
2014,09,18,13,05,16.70
2014,09,18,13,06,16.70
2014,09,18,13,07,16.70
2014,09,18,13,08,16.70
2014,09,18,13,09,16.70
2014,09,18,13,10,16.70
2014,09,18,13,11,16.70
2014,09,18,13,12,16.70
2014,09,18,13,13,16.70
2014,09,18,13,14,16.70
2014,09,18,13,15,16.70
2014,09,18,13,16,16.70
2014,09,18,13,17,16.70
2014,09,18,13,18,16.70
2014,09,18,13,19,16.70
2014,09,18,13,20,16.70
2014,09,18,13,21,16.70
2014,09,18,13,22,16.70
2014,09,18,13,23,16.70
2014,09,18,13,57,17.20
2014,09,18,13,58,17.20
2014,09,18,13,59,17.20
2014,09,18,14,00,17.30
2014,09,18,14,01,17.30
2014,09,18,14,02,17.30
2014,09,18,14,03,17.30
2014,09,18,14,04,17.20
2014,09,18,14,05,17.20
2014,09,18,14,06,17.20
2014,09,18,14,07,17.20
2014,09,18,14,08,17.20
2014,09,18,14,09,17.20
2014,09,18,14,10,17.20
2014,09,18,14,11,17.20
2014,09,18,14,12,17.20
2014,09,18,14,13,17.10
2014,09,18,14,14,17.10
2014,09,18,14,15,17.10
2014,09,18,14,16,17.00
2014,09,18,14,17,17.00
2014,09,18,14,18,17.00
2014,09,18,14,19,17.00
2014,09,18,14,20,17.00
2014,09,18,14,21,17.00
2014,09,18,14,22,17.10
2014,09,18,14,23,17.10
2014,09,18,14,24,17.10
2014,09,18,14,25,17.10
2014,09,18,14,26,17.10
2014,09,18,14,27,17.10
2014,09,18,14,28,17.10
2014,09,18,14,29,17.10
2014,09,18,14,30,17.20
2014,09,18,14,31,17.20
2014,09,18,14,32,17.30
2014,09,18,14,33,17.30
2014,09,18,14,34,17.30
2014,09,18,14,35,17.30
2014,09,18,14,36,17.30
2014,09,18,14,37,17.30
2014,09,18,14,38,17.30
2014,09,18,14,39,17.30
2014,09,18,14,40,17.30
2014,09,18,14,41,17.30
2014,09,18,14,42,17.40
2014,09,18,14,43,17.40
2014,09,18,14,44,17.40
2014,09,18,14,45,17.40
2014,09,18,14,46,17.40
2014,09,18,14,47,17.30
2014,09,18,14,48,17.30
2014,09,18,14,49,17.30
2014,09,18,14,50,17.30
2014,09,18,14,51,17.30
2014,09,18,14,52,17.30
2014,09,18,14,53,17.30
2014,09,18,14,54,17.30
2014,09,18,14,55,17.30
2014,09,18,14,56,17.30
2014,09,18,14,57,17.30
2014,09,18,14,58,17.30
2014,09,18,14,59,17.30
2014,09,18,15,00,17.30
2014,09,18,15,01,17.40
2014,09,18,15,02,17.40
2014,09,18,15,03,17.50
2014,09,18,15,04,17.50
2014,09,18,15,05,17.60
2014,09,18,15,06,17.60
2014,09,18,15,07,17.70
2014,09,18,15,08,17.70
2014,09,18,15,09,17.80
2014,09,18,15,10,17.90
2014,09,18,15,11,17.90
2014,09,18,15,12,17.90
2014,09,18,15,13,17.90
2014,09,18,15,14,17.90
2014,09,18,15,15,17.90
2014,09,18,15,16,18.10
2014,09,18,15,17,18.10
2014,09,18,15,18,18.10
2014,09,18,15,19,18.10
2014,09,18,15,20,18.10
2014,09,18,15,21,18.20
2014,09,18,15,22,18.20
2014,09,18,15,23,18.20
2014,09,18,15,24,18.10
2014,09,18,15,25,18.10
2014,09,18,15,26,17.90
2014,09,18,15,27,17.90
2014,09,18,15,28,17.90
2014,09,18,15,29,17.90
2014,09,18,15,30,17.90
2014,09,18,15,31,17.90
2014,09,18,15,32,17.90
2014,09,18,15,33,18.10
2014,09,18,15,34,18.10
2014,09,18,15,35,18.10
2014,09,18,15,36,18.10
2014,09,18,15,37,18.10
2014,09,18,15,38,18.10
2014,09,18,15,39,18.10
2014,09,18,15,40,18.10
2014,09,18,15,41,18.20
2014,09,18,15,42,18.20
2014,09,18,15,43,18.20
2014,09,18,15,44,18.20
2014,09,18,15,45,18.20
2014,09,18,15,46,18.20
2014,09,18,15,47,18.20
2014,09,18,15,48,18.10
2014,09,18,15,49,18.10
2014,09,18,15,50,18.10
2014,09,18,15,51,18.10
2014,09,18,15,52,18.10
2014,09,18,15,53,18.20
2014,09,18,15,54,18.20
2014,09,18,15,55,18.20
2014,09,18,15,56,18.20
2014,09,18,15,57,18.20
2014,09,18,15,58,18.20
2014,09,18,15,59,18.20
2014,09,18,16,00,18.20
2014,09,18,16,01,18.20
2014,09,18,16,02,18.20
2014,09,18,16,03,18.20
2014,09,18,16,04,18.20
2014,09,18,16,05,18.20
2014,09,18,16,06,18.20
2014,09,18,16,07,18.20
2014,09,18,16,08,18.20
2014,09,18,16,09,18.20
2014,09,18,16,10,18.20
2014,09,18,16,11,18.20
2014,09,18,16,12,18.20
2014,09,18,16,13,18.20
2014,09,18,16,14,18.30
2014,09,18,16,15,18.30
2014,09,18,16,16,18.30
2014,09,18,16,17,18.30
2014,09,18,16,18,18.30
2014,09,18,16,19,18.30
2014,09,18,16,20,18.30
2014,09,18,16,21,18.30
2014,09,18,16,22,18.30
2014,09,18,16,23,18.30
2014,09,18,16,24,18.30
2014,09,18,16,25,18.30
2014,09,18,16,26,18.30
2014,09,18,16,27,18.30
2014,09,18,16,28,18.30
2014,09,18,16,29,18.30
2014,09,18,16,30,18.30
2014,09,18,16,31,18.30
2014,09,18,16,32,18.20
2014,09,18,16,33,18.20
2014,09,18,16,34,18.20
2014,09,18,16,35,18.20
2014,09,18,16,36,18.20
2014,09,18,16,37,18.20
2014,09,18,16,38,18.20
2014,09,18,16,39,18.20
2014,09,18,16,40,18.20
2014,09,18,16,41,18.20
2014,09,18,16,42,18.20
2014,09,18,16,43,18.20
2014,09,18,16,44,18.20
2014,09,18,16,45,18.10
2014,09,18,16,46,18.10
2014,09,18,16,47,18.10
2014,09,18,16,48,18.10
2014,09,18,16,49,18.10
2014,09,18,16,50,18.10
2014,09,18,16,51,18.10
2014,09,18,16,52,18.10
2014,09,18,16,53,18.10
2014,09,18,16,54,17.90
2014,09,18,16,55,17.90
2014,09,18,16,56,17.90
2014,09,18,16,57,17.90
2014,09,18,16,58,17.90
2014,09,18,16,59,17.90
2014,09,18,17,00,17.90
2014,09,18,17,01,17.90
2014,09,18,17,02,17.90
2014,09,18,17,03,17.90
2014,09,18,17,04,17.90
2014,09,18,17,05,17.90
2014,09,18,17,06,17.90
2014,09,18,17,07,17.90
2014,09,18,17,08,17.90
2014,09,18,17,09,17.90
2014,09,18,17,10,17.90
2014,09,18,17,11,17.90
2014,09,18,17,12,17.90
2014,09,18,17,13,17.90
2014,09,18,17,14,17.90
